Location: Bayshore Village Mobile Home Park
(26.6945°N, 81.8642°W)
Time: 15:37:37
(UTC+00:00)

Cosmos 1400 Rocket - Pass Details

Date: 17 June 2021
Orbit: 521 x 567 km, 81.2° (Epoch: 26 July)

Event Time Altitude Azimuth Distance (km) Brightness Sun altitude
Rises 01:55:29 0° 347° (NNW) 2,647 7.2 -18.2°
Reaches altitude 10° 01:57:39 10° 342° (NNW) 1,755 6.2 -18.6°
Maximum altitude 02:01:25 54° 265° (W) 640 3.3 -19.2°
Enters shadow 02:03:21 26° 199° (SSW) 1,058 4.0 -19.6°
